Location: Lancaster
(54.0470°N, 2.8020°W)
Time: 11:41:34
(UTC+00:00)

COSMOS 2428 - Visible Passes

Search period start: 01 February 2015 00:00
Search period end: 11 February 2015 00:00
Orbit: 844 x 857 km, 71.0° (Epoch: 01 February)

Date Brightness Start Highest point End Pass type
(mag) Time Alt. Az. Time Alt. Az. Time Alt. Az.
01 Feb 4.9 03:28:23 18° NNE 03:28:40 18° NNE 03:32:33 10° ENE visible
01 Feb 3.7 05:10:23 17° NNW 05:14:28 44° NE 05:19:54 10° ESE visible
01 Feb 3.0 06:53:23 10° NW 06:58:50 47° WSW 07:04:13 10° S visible
02 Feb 5.0 03:16:26 18° NNE 03:16:26 18° NNE 03:20:12 10° ENE visible
02 Feb 3.7 04:58:27 20° NNW 05:02:07 44° NE 05:07:33 10° ESE visible
02 Feb 3.0 06:41:03 10° NW 06:46:29 47° WSW 06:51:53 10° S visible
03 Feb 5.0 03:04:33 18° NNE 03:04:33 18° NNE 03:07:51 10° ENE visible
03 Feb 3.7 04:46:34 23° NNW 04:49:46 44° NE 04:55:11 10° ESE visible
03 Feb 3.0 06:28:42 10° NW 06:34:09 47° WSW 06:39:32 10° S visible
04 Feb 5.1 02:52:43 17° NE 02:52:43 17° NE 02:55:29 10° ENE visible
04 Feb 3.7 04:34:44 27° N 04:37:25 44° NE 04:42:50 10° ESE visible
04 Feb 3.0 06:16:45 12° NW 06:21:48 48° WSW 06:27:11 10° S visible
05 Feb 5.2 02:40:58 16° NE 02:40:58 16° NE 02:43:08 10° ENE visible
05 Feb 3.7 04:23:00 31° N 04:25:04 44° NE 04:30:29 10° ESE visible
05 Feb 2.9 06:05:01 15° NW 06:09:27 48° WSW 06:14:50 10° S visible
06 Feb 5.3 02:29:19 14° NE 02:29:19 14° NE 02:30:47 10° ENE visible
06 Feb 3.7 04:11:21 37° N 04:12:43 44° NE 04:18:08 10° ESE visible
06 Feb 2.9 05:53:22 20° NW 05:57:06 48° WSW 06:02:30 10° S visible
06 Feb 4.6 19:08:33 10° SSE 19:09:17 13° SE 19:09:17 13° SE visible
06 Feb 5.0 20:50:45 10° SW 20:51:24 13° SW 20:51:24 13° SW visible
07 Feb 5.5 02:17:47 12° ENE 02:17:47 12° ENE 02:18:25 10° ENE visible
07 Feb 3.7 03:59:49 42° NNE 04:00:22 44° NE 04:05:47 10° ESE visible
07 Feb 2.9 05:41:52 26° NW 05:44:45 48° WSW 05:50:09 10° S visible
07 Feb 4.1 18:56:13 10° SSE 18:58:49 20° SE 18:58:49 20° SE visible
07 Feb 4.2 20:38:24 10° SW 20:40:56 27° SW 20:40:56 27° SW visible
08 Feb 3.7 03:48:27 43° ENE 03:48:27 43° ENE 03:53:26 10° ESE visible
08 Feb 2.9 05:30:30 35° WNW 05:32:24 48° WSW 05:37:48 10° S visible
08 Feb 3.8 18:43:52 10° SSE 18:48:06 22° ESE 18:48:18 22° E visible
08 Feb 3.2 20:26:04 10° SW 20:30:24 54° SW 20:30:24 54° SW visible
08 Feb 5.4 22:12:08 10° W 22:12:30 12° W 22:12:30 12° W visible
09 Feb 4.0 03:37:16 35° E 03:37:16 35° E 03:41:05 10° ESE visible
09 Feb 2.8 05:19:19 45° W 05:20:03 48° WSW 05:25:27 10° S visible
09 Feb 3.8 18:31:32 10° SSE 18:35:45 22° ESE 18:37:40 19° ENE visible
09 Feb 2.7 20:13:42 10° SW 20:19:26 83° WNW 20:19:46 78° N visible
09 Feb 5.0 21:59:46 10° W 22:01:51 19° WNW 22:01:51 19° WNW visible
10 Feb 4.5 03:26:15 25° ESE 03:26:15 25° ESE 03:28:43 10° ESE visible
10 Feb 3.0 05:08:20 46° SW 05:08:20 46° SW 05:13:06 10° S visible
10 Feb 3.8 18:19:11 10° SSE 18:23:24 22° ESE 18:26:53 13° ENE visible
10 Feb 2.7 20:01:21 10° SW 20:07:05 83° WNW 20:08:58 45° NNE visible
10 Feb 4.7 21:47:26 10° W 21:51:02 25° NW 21:51:02 25° NW visible
